SQ3MKP-13 Weather Reports


time (UTC)temp
F
wind
direction
speed
knots
gust
knots
rain 1hr
in
rain 24hr
in
rain mn
in
humidity
%
barometer
mb
20260508002638 47 30 1.7 3.5 0.00 0.00 0.00 80 1008.0
20260508002136 47 324 2.6 3.5 0.00 0.00 0.00 80 1007.9
20260508001635 47 48 3.5 5.2 0.00 0.00 0.00 80 1008.0
20260508001135 47 36 2.6 5.2 0.00 0.00 0.00 81 1008.0
20260508000634 47 348 3.5 4.3 0.00 0.00 0.00 82 1008.0
20260508000133 47 121 1.7 3.5 0.00 0.00 0.00 84 1008.0
20260507235632 47 356 2.6 4.3 0.00 0.00 0.00 85 1008.1
20260507235131 47 6 1.7 4.3 0.00 0.00 0.00 85 1008.1
20260507234630 47 36 1.7 3.5 0.00 0.00 0.00 85 1008.1
20260507234129 47 340 2.6 3.5 0.00 0.00 0.00 85 1008.1
20260507233628 47 77 0.0 0.0 0.00 0.00 0.00 85 1008.1
20260507233127 47 77 2.6 3.5 0.00 0.00 0.00 85 1008.1
20260507232626 47 334 3.5 4.3 0.00 0.00 0.00 85 1008.1
20260507232126 47 353 3.5 4.3 0.00 0.00 0.00 85 1008.2
20260507231124 47 317 1.7 1.7 0.00 0.00 0.00 85 1008.3
20260507230623 47 342 2.6 3.5 0.00 0.00 0.00 85 1008.2
20260507230122 47 330 2.6 3.5 0.00 0.00 0.00 85 1008.1
20260507225621 47 2 2.6 4.3 0.00 0.00 0.00 84 1008.1
20260507225120 47 347 3.5 5.2 0.00 0.00 0.00 84 1008.0
20260507224619 47 14 4.3 7.8 0.00 0.00 0.00 84 1008.0
20260507224118 47 13 2.6 4.3 0.00 0.00 0.00 85 1008.0
20260507223617 47 0 2.6 3.5 0.00 0.00 0.00 85 1008.1
20260507223116 47 342 1.7 3.5 0.00 0.00 0.00 85 1008.1
20260507222615 47 6 3.5 5.2 0.00 0.00 0.00 85 1008.0
20260507222114 47 348 2.6 3.5 0.00 0.00 0.00 85 1008.1
20260507221613 47 21 2.6 3.5 0.00 0.00 0.00 85 1008.2
20260507221112 47 340 2.6 3.5 0.00 0.00 0.00 85 1008.2
20260507220611 47 2 1.7 2.6 0.00 0.00 0.00 85 1008.1
20260507220110 47 0 2.6 3.5 0.00 0.00 0.00 85 1008.1
20260507215609 47 329 2.6 4.3 0.00 0.00 0.00 85 1008.1
20260507215108 47 346 2.6 4.3 0.00 0.00 0.00 85 1008.1
20260507214607 47 301 2.6 4.3 0.00 0.00 0.00 85 1008.0
20260507214106 48 336 2.6 3.5 0.00 0.00 0.00 85 1008.0
20260507213605 48 342 3.5 4.3 0.00 0.00 0.00 84 1007.9
20260507213104 48 312 2.6 4.3 0.00 0.00 0.00 85 1007.9
20260507212603 48 348 1.7 2.6 0.00 0.00 0.00 84 1007.8
20260507212102 48 342 3.5 4.3 0.00 0.00 0.00 84 1007.8
20260507211601 48 342 2.6 4.3 0.00 0.00 0.00 85 1007.7
20260507211100 48 42 2.6 4.3 0.00 0.00 0.00 84 1007.6
20260507210559 48 322 3.5 4.3 0.00 0.00 0.00 85 1007.6
20260507210058 48 6 1.7 3.5 0.00 0.00 0.00 85 1007.5
20260507205557 48 324 3.5 4.3 0.00 0.00 0.00 84 1007.5
20260507205056 48 5 1.7 3.5 0.00 0.00 0.00 84 1007.5
20260507204555 48 347 3.5 4.3 0.00 0.00 0.00 84 1007.4
20260507204054 48 335 2.6 4.3 0.00 0.00 0.00 84 1007.4
20260507203553 48 335 2.6 3.5 0.00 0.00 0.00 84 1007.3
20260507203052 48 333 3.5 4.3 0.00 0.00 0.00 84 1007.2
20260507202551 48 15 2.6 3.5 0.00 0.00 0.00 84 1007.2
20260507202050 48 312 2.6 3.5 0.00 0.00 0.00 84 1007.1
20260507201549 48 316 3.5 5.2 0.00 0.00 0.00 84 1007.1
20260507201048 48 342 2.6 4.3 0.00 0.00 0.00 84 1007.1
20260507200547 48 318 2.6 3.5 0.00 0.00 0.00 84 1007.1
20260507200046 48 0 2.6 5.2 0.00 0.00 0.00 83 1007.1
20260507195546 48 270 2.6 2.6 0.00 0.00 0.00 83 1007.1
20260507195045 48 318 1.7 3.5 0.00 0.00 0.00 82 1007.1
20260507194543 49 84 1.7 3.5 0.00 0.00 0.00 82 1007.0
20260507194042 49 324 1.7 3.5 0.00 0.00 0.00 81 1006.9
20260507193541 49 317 2.6 4.3 0.00 0.00 0.00 81 1006.9
20260507193041 49 348 0.9 2.6 0.00 0.00 0.00 81 1006.9
20260507192539 49 32 0.9 3.5 0.00 0.00 0.00 80 1006.8
20260507192039 49 44 3.5 5.2 0.00 0.00 0.00 80 1006.7
20260507191538 49 15 1.7 3.5 0.00 0.00 0.00 81 1006.7
20260507191036 49 44 1.7 3.5 0.00 0.00 0.00 81 1006.7
20260507190536 49 348 0.0 0.0 0.00 0.00 0.00 81 1006.7
20260507190035 49 348 2.6 4.3 0.00 0.00 0.00 81 1006.7
20260507185534 49 58 2.6 3.5 0.00 0.00 0.00 80 1006.6
20260507185033 49 12 1.7 3.5 0.00 0.00 0.00 81 1006.7
20260507184532 49 77 1.7 5.2 0.00 0.00 0.00 81 1006.6
20260507184031 49 54 2.6 5.2 0.00 0.00 0.00 81 1006.4
20260507183530 49 33 3.5 5.2 0.00 0.00 0.00 81 1006.4
20260507183029 49 69 1.7 2.6 0.00 0.00 0.00 81 1006.4
20260507182528 49 301 2.6 3.5 0.00 0.00 0.00 81 1006.3
20260507182027 49 336 3.5 4.3 0.00 0.00 0.00 81 1006.2
20260507181526 48 352 2.6 5.2 0.00 0.00 0.00 82 1006.3
20260507181025 48 18 3.5 5.2 0.00 0.00 0.00 81 1006.3
20260507180524 49 312 1.7 3.5 0.00 0.00 0.00 82 1006.3
20260507180023 48 34 2.6 4.3 0.00 0.00 0.00 82 1006.2
20260507175522 49 312 5.2 7.8 0.00 0.00 0.00 82 1006.1
20260507175021 49 335 3.5 3.5 0.00 0.00 0.00 82 1005.9
20260507174520 49 336 2.6 3.5 0.00 0.00 0.00 82 1005.8
20260507174019 49 336 4.3 4.3 0.00 0.00 0.00 81 1005.7
20260507173518 49 330 3.5 5.2 0.00 0.00 0.00 81 1005.6
20260507173017 49 12 3.5 6.1 0.00 0.00 0.00 81 1005.6
20260507172516 49 348 2.6 4.3 0.00 0.00 0.00 80 1005.6
20260507172015 49 342 2.6 5.2 0.00 0.00 0.00 81 1005.5
20260507171513 49 24 3.5 5.2 0.00 0.00 0.00 81 1005.4
20260507171013 49 12 3.5 5.2 0.00 0.00 0.00 81 1005.4
20260507170512 49 318 3.5 5.2 0.00 0.00 0.00 80 1005.4
20260507170011 49 2 3.5 7.0 0.00 0.00 0.00 80 1005.4
20260507165510 49 327 3.5 5.2 0.00 0.00 0.00 80 1005.4
20260507165009 49 318 4.3 7.0 0.00 0.00 0.00 80 1005.3
20260507164508 49 48 3.5 5.2 0.00 0.00 0.00 80 1005.3
20260507164007 49 353 4.3 5.2 0.00 0.00 0.00 80 1005.2
20260507163507 49 342 3.5 5.2 0.00 0.00 0.00 79 1005.2
20260507163005 49 329 4.3 7.0 0.00 0.00 0.00 79 1005.2
20260507162504 49 8 2.6 3.5 0.00 0.00 0.00 80 1005.2
20260507162003 49 336 0.0 0.0 0.00 0.00 0.00 80 1005.2
20260507161502 49 336 3.5 7.0 0.00 0.00 0.00 80 1005.2
20260507161001 48 336 5.2 7.0 0.00 0.00 0.00 81 1005.2
20260507160500 48 348 4.3 6.1 0.00 0.00 0.00 80 1005.2
20260507155959 49 27 3.5 5.2 0.00 0.00 0.00 81 1005.3
20260507155458 48 330 2.6 5.2 0.00 0.00 0.00 81 1005.4
20260507154958 49 347 3.5 4.3 0.00 0.00 0.00 81 1005.4
20260507154456 49 288 5.2 5.2 0.00 0.00 0.00 81 1005.4
20260507153955 49 323 3.5 3.5 0.00 0.00 0.00 80 1005.3
20260507153454 49 348 2.6 2.6 0.00 0.00 0.00 80 1005.3
20260507152953 49 60 0.0 0.0 0.00 0.00 0.00 80 1005.3
20260507152452 49 60 4.3 4.3 0.00 0.00 0.00 80 1005.2
20260507151951 49 1 0.0 0.0 0.00 0.00 0.00 80 1005.2
20260507151451 49 1 4.3 6.1 0.00 0.00 0.00 80 1005.2
20260507150950 49 330 3.5 5.2 0.00 0.00 0.00 78 1005.2
20260507150449 49 342 2.6 5.2 0.00 0.00 0.00 80 1005.2
20260507145948 49 33 2.6 5.2 0.00 0.00 0.00 81 1005.2
20260507145448 49 323 3.5 6.1 0.00 0.00 0.00 81 1005.2
20260507144946 48 330 3.5 5.2 0.00 0.00 0.00 81 1005.2
20260507144445 49 27 2.6 4.3 0.00 0.00 0.00 82 1005.3
20260507143944 48 323 2.6 4.3 0.00 0.00 0.00 82 1005.3
20260507143443 48 12 2.6 3.5 0.00 0.00 0.00 82 1005.3
20260507142943 48 5 3.5 5.2 0.00 0.00 0.00 82 1005.4
20260507142442 49 12 4.3 7.0 0.00 0.00 0.00 81 1005.4
20260507141439 49 348 2.6 3.5 0.00 0.00 0.00 81 1005.3
20260507140939 48 26 3.5 4.3 0.00 0.00 0.00 82 1005.3
20260507140438 48 66 3.5 5.2 0.00 0.00 0.00 83 1005.2
20260507135936 48 357 4.3 7.8 0.00 0.00 0.00 82 1005.1
20260507135436 48 5 4.3 7.0 0.00 0.00 0.00 84 1005.1
20260507134934 48 348 4.3 7.0 0.00 0.00 0.00 84 1005.0
20260507134433 48 318 3.5 5.2 0.00 0.00 0.00 85 1005.0
20260507133932 47 12 5.2 8.7 0.00 0.00 0.00 85 1005.0
20260507133432 47 329 4.3 7.0 0.00 0.00 0.00 85 1004.9
20260507132930 47 306 4.3 7.8 0.00 0.00 0.00 86 1005.0
20260507132430 47 318 4.3 7.0 0.00 0.00 0.00 85 1005.0
20260507131929 47 20 4.3 7.8 0.00 0.00 0.00 85 1004.9
20260507131427 47 69 5.2 7.8 0.00 0.00 0.00 85 1004.9
20260507130927 48 2 3.5 4.3 0.00 0.00 0.00 84 1004.9
20260507130426 48 12 4.3 7.0 0.00 0.00 0.00 84 1004.9
20260507125925 47 336 0.0 0.0 0.00 0.00 0.00 85 1004.9
20260507125424 47 336 3.5 7.8 0.00 0.00 0.00 85 1004.9
20260507124922 47 342 3.5 4.3 0.00 0.00 0.00 85 1004.9
20260507124422 47 18 3.5 5.2 0.00 0.00 0.00 85 1004.8
20260507123921 47 26 4.3 5.2 0.00 0.00 0.00 85 1004.7
20260507123420 47 351 4.3 7.0 0.00 0.00 0.00 85 1004.7
20260507122919 47 312 3.5 5.2 0.00 0.00 0.00 87 1004.7
20260507122418 47 21 3.5 3.5 0.00 0.00 0.00 86 1004.7
20260507121917 47 282 3.5 4.3 0.00 0.00 0.00 86 1004.8
20260507121416 47 6 2.6 4.3 0.00 0.00 0.00 85 1004.8
20260507120915 48 60 2.6 4.3 0.00 0.00 0.00 85 1004.8
20260507120414 48 347 1.7 3.5 0.00 0.00 0.00 84 1004.7
20260507115913 48 350 0.9 0.9 0.00 0.00 0.00 86 1004.6
20260507115412 47 66 2.6 3.5 0.00 0.00 0.00 87 1004.5
20260507114911 47 21 1.7 3.5 0.00 0.00 0.00 87 1004.5
20260507114410 47 356 4.3 6.1 0.00 0.00 0.00 87 1004.4
20260507113909 47 15 0.0 0.0 0.00 0.00 0.00 88 1004.4
20260507113409 47 15 3.5 4.3 0.00 0.00 0.00 88 1004.2
20260507112907 47 348 3.5 4.3 0.00 0.00 0.00 89 1004.2
20260507112407 47 306 3.5 5.2 0.00 0.00 0.00 89 1004.1
20260507111906 47 354 4.3 5.2 0.00 0.00 0.00 88 1004.2
20260507111405 47 27 4.3 7.0 0.01 0.00 0.00 88 1004.1
20260507110904 47 330 3.5 5.2 0.01 0.00 0.00 86 1004.0
20260507110403 47 9 2.6 4.3 0.01 0.00 0.00 87 1004.0
20260507105902 47 348 3.5 6.1 0.00 0.00 0.00 86 1004.0
20260507105401 47 18 2.6 4.3 0.00 0.00 0.00 87 1004.0
20260507104900 47 18 1.7 3.5 0.00 0.00 0.00 87 1004.0
20260507104359 47 64 2.6 6.1 0.00 0.00 0.00 87 1003.9
20260507103858 47 30 2.6 3.5 0.00 0.00 0.00 87 1003.8
20260507103357 47 27 2.6 5.2 0.00 0.00 0.00 87 1003.8
20260507102856 47 10 3.5 5.2 0.00 0.00 0.00 87 1003.8
20260507102355 47 12 3.5 5.2 0.00 0.00 0.00 87 1003.8
20260507101854 47 24 2.6 6.1 0.00 0.00 0.00 86 1003.8
20260507101353 47 48 2.6 4.3 0.00 0.00 0.00 87 1003.7
20260507100852 47 64 2.6 5.2 0.00 0.00 0.00 86 1003.6
20260507100351 47 98 2.6 3.5 0.00 0.00 0.00 86 1003.6
20260507095850 47 53 2.6 3.5 0.00 0.00 0.00 88 1003.5
20260507094848 47 114 2.6 5.2 0.00 0.00 0.00 87 1003.4
20260507094347 47 18 2.6 3.5 0.00 0.00 0.00 88 1003.3
20260507093846 47 0 2.6 5.2 0.00 0.00 0.00 87 1003.4
20260507093345 47 351 3.5 6.1 0.01 0.00 0.00 88 1003.2
20260507092844 47 42 2.6 4.3 0.01 0.00 0.00 88 1003.1
20260507092343 47 324 2.6 5.2 0.01 0.00 0.00 88 1003.0
20260507091842 46 26 2.6 4.3 0.01 0.00 0.00 89 1003.0
20260507091341 46 59 3.5 5.2 0.01 0.00 0.00 89 1002.9
20260507090840 47 120 3.5 5.2 0.01 0.00 0.00 88 1002.8
20260507090339 47 335 3.5 6.1 0.00 0.00 0.00 86 1002.7
20260507085838 46 70 3.5 6.1 0.00 0.00 0.00 86 1002.6
20260507085337 46 48 4.3 7.8 0.00 0.00 0.00 86 1002.7
20260507084836 47 30 3.5 5.2 0.00 0.00 0.00 86 1002.7
20260507084335 47 346 2.6 5.2 0.00 0.00 0.00 84 1002.7
20260507083834 47 12 2.6 5.2 0.00 0.00 0.00 85 1002.6
20260507083333 47 24 3.5 5.2 0.00 0.00 0.00 86 1002.5
20260507082832 47 64 4.3 7.8 0.00 0.00 0.00 85 1002.5
20260507082331 47 342 3.5 7.8 0.00 0.00 0.00 86 1002.5
20260507081830 47 72 3.5 6.1 0.00 0.00 0.00 85 1002.3
20260507081329 47 48 3.5 5.2 0.00 0.00 0.00 84 1002.2
20260507080828 47 63 4.3 7.0 0.00 0.00 0.00 83 1002.3
20260507080327 46 324 3.5 6.1 0.00 0.00 0.00 84 1002.1
20260507075826 46 5 2.6 5.2 0.00 0.00 0.00 85 1002.2
20260507075325 46 36 3.5 7.0 0.00 0.00 0.00 85 1002.1
20260507074824 47 316 2.6 5.2 0.00 0.00 0.00 84 1002.1
20260507074323 46 138 3.5 4.3 0.00 0.00 0.00 85 1002.0
20260507073822 47 359 2.6 4.3 0.00 0.00 0.00 85 1002.1
20260507073321 46 10 2.6 4.3 0.00 0.00 0.00 84 1002.1
20260507072820 46 24 2.6 5.2 0.00 0.00 0.00 87 1002.0
20260507072319 46 69 3.5 5.2 0.00 0.00 0.00 87 1001.9
20260507071819 46 59 2.6 5.2 0.00 0.00 0.00 87 1001.9
20260507071317 46 24 4.3 7.8 0.00 0.00 0.00 87 1001.8
20260507070817 46 10 3.5 6.1 0.00 0.00 0.00 87 1001.7
20260507070315 46 42 3.5 6.1 0.00 0.00 0.00 89 1001.7
20260507065814 46 24 3.5 3.5 0.00 0.00 0.00 89 1001.6
20260507065314 46 354 3.5 5.2 0.00 0.00 0.00 89 1001.7
20260507064813 46 39 4.3 8.7 0.00 0.00 0.00 88 1001.7
20260507064312 46 354 3.5 6.1 0.00 0.00 0.00 88 1001.6
20260507063811 45 111 3.5 4.3 0.00 0.00 0.00 88 1001.5
20260507063310 45 18 3.5 7.8 0.00 0.00 0.00 90 1001.5
20260507062809 45 39 4.3 7.8 0.00 0.00 0.00 90 1001.3
20260507062308 46 18 4.3 7.8 0.00 0.00 0.00 89 1001.2
20260507061807 46 48 2.6 4.3 0.00 0.00 0.00 89 1001.1
20260507061307 46 24 4.3 7.8 0.00 0.00 0.00 89 1001.0
20260507060805 45 2 4.3 5.2 0.00 0.00 0.00 89 1001.1
20260507060304 45 354 4.3 7.0 0.00 0.00 0.00 90 1001.2
20260507055803 46 14 3.5 6.1 0.00 0.00 0.00 89 1001.2
20260507055305 46 340 2.6 5.2 0.00 0.00 0.00 90 1001.2
20260507054801 46 342 3.5 5.2 0.00 0.00 0.00 90 1001.1
20260507054301 46 4 3.5 3.5 0.00 0.00 0.00 89 1001.0
20260507053759 46 330 0.0 0.0 0.00 0.00 0.00 88 1001.0
20260507053258 46 330 3.5 3.5 0.00 0.00 0.00 88 1000.9
20260507052757 46 48 0.0 0.0 0.00 0.00 0.00 87 1000.8
20260507052257 46 48 3.5 3.5 0.00 0.00 0.00 87 1000.7
20260507051756 46 341 4.3 5.2 0.00 0.00 0.00 88 1000.8
20260507051255 46 48 0.0 0.0 0.00 0.00 0.00 88 1000.7
20260507050754 46 48 2.6 4.3 0.00 0.00 0.00 88 1000.6
20260507050253 46 335 2.6 5.2 0.00 0.00 0.00 89 1000.6
20260507045752 46 353 3.5 5.2 0.00 0.00 0.00 89 1000.5
20260507045252 46 48 3.5 5.2 0.00 0.00 0.00 90 1000.4
20260507044750 45 43 3.5 5.2 0.00 0.00 0.00 90 1000.5
20260507044249 46 92 2.6 5.2 0.00 0.00 0.00 90 1000.4
20260507043748 46 8 3.5 6.1 0.00 0.00 0.00 90 1000.4
20260507043247 45 42 3.5 7.8 0.00 0.00 0.00 90 1000.4
20260507042746 46 359 3.5 7.0 0.00 0.00 0.00 90 1000.5
20260507042245 46 328 4.3 4.3 0.00 0.00 0.00 90 1000.4
20260507041744 46 91 3.5 5.2 0.00 0.00 0.00 90 1000.4
20260507041243 46 348 3.5 5.2 0.00 0.00 0.00 90 1000.5
20260507040742 45 348 2.6 5.2 0.00 0.00 0.00 90 1000.3
20260507040241 45 352 4.3 7.8 0.00 0.00 0.00 90 1000.2
20260507035741 46 4 4.3 7.8 0.00 0.00 0.00 90 1000.1
20260507035240 46 333 2.6 4.3 0.00 0.00 0.00 89 1000.1
20260507034739 46 348 2.6 3.5 0.00 0.00 0.00 90 1000.0
20260507034238 46 24 3.5 3.5 0.00 0.00 0.00 90 1000.0
20260507033737 45 6 2.6 5.2 0.00 0.00 0.00 90 999.9
20260507033235 45 329 3.5 5.2 0.00 0.00 0.00 91 999.9
20260507032736 45 318 2.6 3.5 0.00 0.00 0.00 91 999.8
20260507032233 45 330 3.5 7.0 0.00 0.00 0.00 91 999.6
20260507031732 45 340 4.3 8.7 0.00 0.00 0.00 91 999.6
20260507031231 45 24 5.2 7.8 0.00 0.00 0.00 91 999.6
20260507030730 46 334 3.5 5.2 0.00 0.00 0.00 90 999.6
20260507030229 45 57 4.3 6.1 0.00 0.00 0.00 91 999.6
20260507025728 46 333 4.3 7.8 0.00 0.00 0.00 91 999.5
20260507025227 45 358 4.3 7.0 0.00 0.00 0.00 91 999.6
20260507024726 45 10 4.3 5.2 0.00 0.00 0.00 91 999.6
20260507024225 45 340 4.3 7.8 0.00 0.00 0.00 91 999.5
20260507023724 46 24 5.2 7.8 0.00 0.00 0.00 91 999.5
20260507023224 46 358 4.3 5.2 0.00 0.00 0.00 90 999.5
20260507022722 46 312 2.6 4.3 0.00 0.00 0.00 90 999.5
20260507022221 46 318 3.5 6.1 0.00 0.00 0.00 91 999.4
20260507021720 46 348 3.5 5.2 0.00 0.00 0.00 91 999.4
20260507021219 46 336 3.5 5.2 0.00 0.00 0.00 90 999.3
20260507020718 46 24 2.6 5.2 0.00 0.00 0.00 90 999.4
20260507020217 46 348 3.5 4.3 0.00 0.00 0.00 90 999.3
20260507015716 46 42 3.5 6.1 0.00 0.00 0.00 90 999.3
20260507015214 46 0 3.5 5.2 0.00 0.00 0.00 90 999.3
20260507014714 46 8 3.5 5.2 0.00 0.00 0.00 89 999.3
20260507014213 47 336 2.6 5.2 0.00 0.00 0.00 89 999.3
20260507013712 47 342 2.6 5.2 0.00 0.00 0.00 89 999.2
20260507012710 47 42 4.3 5.2 0.00 0.00 0.00 89 999.0
20260507012209 47 334 3.5 7.0 0.00 0.00 0.00 88 998.9
20260507011708 47 348 4.3 6.1 0.00 0.00 0.00 88 998.8
20260507011207 47 294 3.5 5.2 0.00 0.00 0.00 88 998.8
20260507010706 47 21 4.3 8.7 0.00 0.00 0.00 89 998.6
20260507010205 48 330 3.5 7.0 0.00 0.00 0.00 89 998.7
20260507005704 48 2 3.5 5.2 0.00 0.00 0.00 89 998.6
20260507005203 48 52 3.5 4.3 0.00 0.00 0.00 90 998.6
20260507004703 48 24 5.2 7.8 0.00 0.00 0.00 90 998.6
20260507004202 48 0 4.3 6.1 0.00 0.00 0.00 90 998.7
20260507003701 48 66 2.6 3.5 0.00 0.00 0.00 90 998.6
20260507003159 48 340 3.5 5.2 0.00 0.00 0.00 91 998.6
20260507002658 48 21 4.3 7.8 0.00 0.00 0.00 92 998.6